This is the latest recevied weather packets stored in our database for station/object K0SNA. If no packets are shown the sender has not sent any weather packets the latest 10 day(s).
| Time | Temp. | Humidity | Pressure | Rain* | Wind** | Luminosity | Snow |
|---|---|---|---|---|---|---|---|
| 1778030968 | 7.78° C | 45% | 1011.9 hPa | 0 mm | - | 1 W/m² | - |
| 1778030664 | 7.78° C | 45% | 1011.9 hPa | 0 mm | - | 2 W/m² | - |
| 1778030362 | 7.78° C | 44% | 1011.8 hPa | 0 mm | - | 3 W/m² | - |
| 1778030059 | 7.78° C | 44% | 1011.9 hPa | 0 mm | - | 5 W/m² | - |
| 1778029755 | 8.33° C | 43% | 1011.6 hPa | 0 mm | - | 7 W/m² | - |
| 1778029455 | 8.33° C | 43% | 1011.8 hPa | 0 mm | - | 9 W/m² | - |
| 1778029150 | 8.89° C | 42% | 1011.7 hPa | 0 mm | - | 11 W/m² | - |
| 1778028849 | 8.89° C | 41% | 1011.5 hPa | 0 mm | - | 14 W/m² | - |
| 1778028543 | 8.89° C | 41% | 1011.6 hPa | 0 mm | - | 18 W/m² | - |
| 1778028242 | 8.89° C | 41% | 1011.5 hPa | 0 mm | - | 25 W/m² | - |
| 1778027937 | 8.89° C | 41% | 1011.4 hPa | 0 mm | - | 22 W/m² | - |
| 1778027633 | 8.89° C | 41% | 1011.3 hPa | 0 mm | - | 19 W/m² | - |
| 1778027330 | 8.89° C | 42% | 1011.6 hPa | 0 mm | - | 19 W/m² | - |
| 1778027026 | 8.89° C | 41% | 1011.3 hPa | 0 mm | - | 23 W/m² | - |
| 1778026722 | 8.89° C | 41% | 1011.2 hPa | 0 mm | - | 30 W/m² | - |
| 1778026419 | 8.89° C | 40% | 1011.1 hPa | 0 mm | - | 22 W/m² | - |
| 1778026116 | 8.89° C | 40% | 1011.2 hPa | 0 mm | - | 21 W/m² | - |
| 1778025814 | 8.89° C | 42% | 1011.2 hPa | 0 mm | - | 24 W/m² | - |
| 1778025511 | 8.89° C | 40% | 1011.1 hPa | 0 mm | - | 29 W/m² | - |
| 1778025208 | 9.44° C | 40% | 1010.9 hPa | 0 mm | - | 32 W/m² | - |
| 1778024905 | 9.44° C | 40% | 1011 hPa | 0 mm | - | 39 W/m² | - |
| 1778024603 | 9.44° C | 41% | 1010.9 hPa | 0 mm | - | 48 W/m² | - |
| 1778024299 | 9.44° C | 40% | 1011 hPa | 0 mm | - | 46 W/m² | - |
| 1778023997 | 9.44° C | 40% | 1011.1 hPa | 0 mm | - | 65 W/m² | - |
| 1778023694 | 9.44° C | 39% | 1011 hPa | 0 mm | - | 77 W/m² | - |
* Rain latest hour (hover to see other rain measurements)
** Current wind speed in m/s (hover to see current wind gust speed)